Wind_Speed
20 20 21 23 24 25 25 25 27 27 27 28 29 29 29 29 30 30 30 30 29 29 29 29 29 28 28 27 27 27 26 26 25 25 25 25 25 25 26 26 26 26 26
20 20 21 24 25 26 26 27 27 28 28 29 30 30 30 31 31 30 30 30 29 28 28 28 27 27 26 25 24 25 25 25 25 25 25 25 25 25 25 26 26 26 26
21 21 22 24 25 26 28 28 28 28 29 29 29 30 32 32 31 30 29 28 28 27 26 26 25 25 24 25 24 24 25 24 25 25 24 23 24 25 25 25 25 26 26
22 23 24 25 26 28 28 28 29 29 29 29 30 31 31 31 30 28 28 27 26 25 25 25 24 24 24 24 24 24 23 24 24 24 24 24 24 24 24 25 26 26 26
24 24 25 26 27 28 28 29 30 30 30 30 30 30 29 29 29 27 26 25 23 23 23 24 23 23 24 24 24 24 23 24 24 24 24 24 24 25 25 24 25 26 26
26 25 25 26 27 28 28 29 30 30 29 29 29 29 27 27 26 26 25 23 22 22 22 23 23 23 24 23 23 23 23 23 23 24 24 24 24 24 24 25 26 27 27
27 27 27 27 28 28 29 30 30 29 29 28 28 28 27 26 25 24 23 22 21 22 22 22 22 23 23 23 23 23 23 23 23 23 23 24 25 24 24 25 26 26 27
27 27 28 27 27 28 28 29 29 28 28 27 27 27 26 25 24 23 22 21 21 21 22 21 21 21 22 23 23 23 23 22 22 22 22 23 24 24 24 24 25 25 25
27 27 27 27 27 28 28 28 28 28 27 26 26 26 25 24 23 22 21 20 20 21 21 21 21 21 21 22 22 22 22 22 22 22 22 23 23 24 24 24 25 26 26
27 26 26 26 27 27 28 28 27 26 26 25 24 24 24 23 22 21 21 21 21 20 21 20 20 21 21 21 20 21 21 21 22 21 20 21 22 23 23 24 25 25 26
25 25 25 26 26 26 26 26 25 25 25 24 23 23 23 22 21 21 21 21 20 20 20 19 19 19 20 20 20 20 20 20 20 20 20 21 21 22 23 23 24 24 24
25 25 26 25 25 25 25 25 24 24 23 22 22 22 22 22 21 21 21 20 20 19 19 19 19 18 18 19 19 19 19 19 18 18 19 20 20 21 22 22 23 23 23
25 25 25 24 24 24 24 24 23 22 22 21 20 21 22 21 21 21 20 19 19 19 19 19 18 18 17 17 17 18 18 17 17 17 18 19 19 20 20 20 21 22 23
25 25 25 24 24 23 23 22 21 20 20 20 20 21 21 21 20 20 19 18 18 19 18 17 16 16 16 15 15 15 16 16 17 17 18 18 17 18 19 20 21 21 22
24 24 24 23 23 22 22 21 20 20 20 19 20 21 21 20 20 19 18 18 18 17 17 17 16 16 14 13 14 15 15 15 15 15 16 16 16 17 18 19 19 20 20
23 23 22 22 21 21 21 20 20 20 20 19 19 19 20 20 19 18 18 17 16 16 17 16 15 15 14 14 14 15 15 14 14 14 14 15 15 16 17 18 19 19 19
22 22 22 21 20 19 20 20 20 20 19 19 18 18 18 18 17 17 15 16 16 16 16 15 15 15 14 14 14 15 14 14 14 14 14 15 16 17 17 17 18 18 18
21 21 20 20 20 20 20 19 19 19 18 18 17 17 17 17 16 15 15 15 16 16 16 15 14 14 14 15 15 15 15 14 14 14 15 16 16 16 16 16 17 17 18
20 20 20 20 20 19 19 19 18 18 17 16 16 16 16 16 15 14 13 15 16 16 15 15 16 15 15 16 16 15 15 15 15 15 15 16 16 16 17 17 17 17 18
20 20 20 20 20 19 18 18 17 16 16 15 15 16 16 16 16 15 15 15 15 15 15 15 16 16 15 15 15 16 16 16 16 16 15 15 15 16 17 17 18 18 18
20 19 19 19 19 18 18 17 16 16 15 15 15 16 15 15 15 15 15 15 15 14 14 14 15 16 16 15 15 16 17 16 16 16 15 15 16 16 17 17 18 18 18
19 19 19 18 18 18 17 16 15 15 15 15 16 16 15 14 14 14 14 14 14 15 15 15 15 16 16 16 15 16 16 16 16 15 16 16 16 16 17 18 19 19 18
18 18 18 18 18 17 16 15 15 14 14 14 14 14 14 13 13 13 13 13 14 15 15 15 16 17 16 16 15 16 16 16 16 16 16 16 16 17 17 18 19 19 19
18 18 18 18 17 17 16 15 14 14 13 13 12 12 12 13 13 13 12 13 14 15 15 16 17 17 17 16 16 16 16 16 17 17 17 17 18 17 19 20 21 20 21
19 18 17 17 16 15 14 14 14 13 13 12 12 11 12 12 12 12 12 13 14 14 15 16 16 17 17 16 16 17 16 17 18 18 18 18 18 18 19 21 21 21 22
18 17 16 16 15 14 14 14 14 13 12 11 11 11 12 11 10 10 11 12 13 14 14 15 16 16 17 17 17 17 17 17 18 19 20 20 20 20 21 21 22 23 23
Wind_Direction
302 303 305 306 307 308 311 310 311 310 309 308 307 305 303 301 300 299 296 296 295 295 293 293 290 287 284 282 282 281 280 277 277 277 277 276 276 276 275 272 271 272 272
304 304 305 306 308 310 311 312 313 311 309 309 308 306 305 303 301 299 298 295 294 294 295 293 290 285 283 282 282 283 281 279 278 277 275 274 275 275 274 273 271 272 272
306 307 305 306 310 313 314 312 312 311 312 311 310 308 306 306 304 301 298 296 294 293 294 293 291 286 285 283 281 283 280 279 277 276 275 274 275 275 274 273 271 272 272
305 307 307 307 310 313 314 314 313 313 313 312 312 311 310 308 305 300 298 297 295 294 293 293 290 286 285 284 284 286 284 281 277 275 275 275 276 275 276 275 273 272 272
307 306 306 307 310 312 313 315 315 314 313 314 314 314 314 311 308 307 304 303 301 298 296 294 290 287 285 284 284 285 285 283 279 276 274 273 274 275 278 278 277 274 274
309 309 308 308 310 312 313 314 314 315 316 316 316 316 316 315 313 311 311 309 305 301 297 294 290 287 286 285 284 285 287 284 282 279 276 275 274 276 278 278 279 278 277
310 312 312 311 312 313 315 314 312 314 317 318 318 319 317 316 315 315 315 311 307 304 301 298 293 288 287 287 285 285 285 285 284 282 278 276 275 278 279 280 280 279 279
311 312 313 314 314 314 315 316 316 316 318 319 319 318 318 318 319 318 317 314 310 307 304 301 298 291 288 286 286 286 285 285 285 284 281 279 277 278 280 281 281 280 280
311 313 314 314 315 315 316 317 318 319 320 320 321 321 321 319 319 319 319 316 314 310 307 303 300 295 292 290 287 286 286 285 286 286 284 282 280 279 281 283 285 283 281
312 314 315 315 315 316 317 318 318 320 321 320 322 323 324 322 322 321 320 318 316 313 309 305 302 298 296 295 294 292 289 288 288 286 285 286 284 283 282 282 285 285 285
314 316 316 316 317 317 319 322 321 322 323 325 325 327 328 327 326 325 324 322 319 318 316 312 307 303 302 299 297 297 296 293 292 290 289 290 288 284 283 283 285 287 288
314 316 317 317 318 319 321 322 322 322 324 326 326 328 330 329 326 324 324 324 324 323 320 316 313 309 306 303 302 301 302 298 295 294 293 293 292 289 287 286 287 289 290
318 319 321 321 320 322 322 323 322 322 325 326 325 327 330 330 328 325 326 327 326 325 324 320 317 314 311 309 308 306 307 303 299 298 296 295 294 295 293 291 291 291 292
320 322 322 322 321 324 326 328 326 325 327 326 325 327 328 329 330 332 330 330 329 328 327 325 322 321 319 317 314 314 311 306 303 301 300 299 297 297 296 297 296 294 295
320 323 323 323 323 325 327 328 327 327 328 328 326 327 328 329 329 330 331 333 333 333 332 330 328 326 327 325 321 316 314 311 310 309 308 308 306 302 299 298 299 299 299
322 324 325 325 326 327 328 329 329 328 328 328 328 328 329 329 331 331 332 335 336 335 335 334 334 337 338 336 332 326 325 324 322 321 319 318 316 313 308 305 306 306 306
327 328 328 328 328 329 329 330 331 332 331 330 329 330 332 332 333 336 339 340 341 341 342 343 344 344 344 341 338 337 332 326 326 325 324 324 322 320 315 311 312 312 314
330 331 333 334 334 333 334 333 333 333 333 334 334 333 333 335 336 339 340 341 343 347 347 346 345 343 343 344 342 338 336 334 334 331 327 324 322 321 320 316 316 317 318
332 332 332 333 335 334 335 335 334 335 335 338 340 340 341 344 342 340 342 345 347 347 346 347 348 349 347 346 345 347 346 344 340 337 334 330 328 326 323 321 323 322 321
330 331 332 332 333 335 336 335 335 337 340 344 345 344 344 347 349 350 348 348 349 348 348 349 349 350 349 348 349 352 351 347 345 343 341 338 335 333 331 329 329 328 326
325 329 331 331 333 334 335 336 337 340 341 343 345 346 347 348 352 354 353 353 354 354 353 350 348 349 349 349 351 353 352 349 348 347 346 344 341 338 336 333 333 334 333
319 323 327 329 331 333 335 335 337 338 340 341 343 347 349 351 352 355 356 358 359 359 359 357 354 354 354 354 356 357 355 353 351 350 350 350 348 345 342 341 340 341 339
313 316 319 324 327 329 330 331 332 334 337 340 342 347 352 353 356 358 359 1 2 2 3 2 360 359 360 1 3 2 358 355 354 354 353 352 351 350 350 349 347 345 343
307 309 313 318 321 324 324 326 329 332 336 339 343 347 351 353 355 356 -0 3 3 5 6 6 4 3 3 4 5 3 1 1 359 357 356 355 353 352 352 352 350 348 347
301 304 308 312 317 320 322 324 325 328 331 333 336 341 346 350 354 357 0 2 3 5 5 6 6 7 8 7 6 6 5 2 0 359 359 358 356 356 354 353 352 349 346
297 300 304 307 310 314 318 320 321 324 327 329 333 335 340 345 354 360 0 2 4 6 7 8 8 9 8 8 7 7 6 4 2 2 1 359 358 357 356 354 353 351 348
Height
5842 5841 5839 5837 5834 5831 5827 5825 5822 5819 5816 5813 5810 5806 5802 5800 5797 5794 5791 5789 5786 5784 5782 5780 5778 5777 5776 5775 5775 5774 5774 5773 5773 5773 5773 5773 5773 5773 5774 5774 5774 5774 5775
5839 5838 5835 5832 5830 5827 5823 5821 5817 5814 5811 5807 5803 5799 5795 5792 5790 5787 5784 5781 5779 5777 5775 5772 5771 5769 5769 5768 5767 5767 5766 5766 5766 5766 5766 5766 5767 5767 5767 5766 5766 5767 5767
5836 5834 5831 5828 5825 5822 5819 5816 5812 5809 5805 5801 5798 5793 5788 5784 5782 5779 5776 5773 5771 5769 5767 5765 5764 5763 5762 5761 5761 5760 5760 5759 5759 5759 5759 5759 5759 5759 5759 5759 5759 5759 5759
5833 5830 5827 5824 5821 5818 5814 5810 5807 5803 5799 5795 5791 5787 5782 5778 5775 5772 5769 5766 5764 5762 5760 5758 5757 5756 5755 5755 5754 5753 5752 5752 5751 5751 5751 5751 5751 5751 5751 5751 5751 5751 5751
5828 5826 5823 5820 5816 5813 5810 5806 5802 5798 5794 5790 5785 5780 5776 5772 5769 5765 5762 5759 5757 5755 5753 5752 5750 5749 5749 5748 5747 5747 5746 5745 5744 5744 5744 5743 5743 5743 5743 5744 5744 5744 5744
5824 5821 5818 5815 5811 5808 5804 5801 5797 5793 5789 5784 5779 5775 5771 5767 5764 5760 5756 5754 5751 5749 5747 5745 5744 5743 5742 5741 5740 5740 5739 5738 5737 5737 5736 5736 5736 5736 5736 5736 5736 5736 5735
5820 5816 5813 5810 5807 5803 5799 5795 5791 5788 5783 5779 5774 5770 5766 5762 5759 5755 5751 5748 5746 5744 5742 5739 5738 5736 5735 5734 5734 5733 5732 5731 5731 5730 5730 5729 5729 5728 5728 5728 5728 5727 5727
5816 5813 5809 5805 5802 5798 5794 5790 5786 5782 5778 5774 5770 5765 5761 5757 5754 5750 5747 5744 5741 5739 5736 5734 5732 5730 5729 5728 5727 5726 5726 5725 5725 5724 5723 5722 5722 5721 5721 5720 5720 5719 5719
5812 5809 5805 5801 5797 5793 5789 5785 5781 5777 5773 5769 5765 5761 5757 5753 5749 5746 5743 5740 5737 5734 5731 5729 5727 5725 5724 5722 5721 5721 5720 5719 5718 5717 5716 5715 5714 5714 5713 5713 5712 5712 5711
5808 5804 5801 5797 5793 5789 5785 5780 5776 5773 5769 5765 5761 5757 5753 5749 5745 5742 5739 5735 5732 5729 5726 5724 5723 5721 5719 5718 5717 5716 5714 5713 5712 5711 5710 5709 5708 5707 5707 5706 5705 5704 5703
5804 5800 5796 5792 5788 5785 5780 5776 5772 5768 5765 5761 5757 5754 5750 5745 5742 5739 5735 5732 5729 5725 5723 5720 5719 5717 5715 5713 5712 5711 5709 5708 5706 5705 5704 5703 5702 5701 5700 5699 5698 5697 5695
5800 5796 5792 5788 5784 5780 5776 5772 5769 5765 5761 5758 5754 5751 5747 5743 5739 5736 5732 5729 5726 5723 5720 5717 5715 5713 5711 5709 5707 5706 5704 5702 5701 5699 5698 5697 5696 5695 5694 5693 5691 5690 5688
5795 5791 5787 5783 5780 5776 5773 5769 5765 5762 5758 5755 5752 5749 5745 5741 5737 5733 5729 5726 5723 5720 5717 5714 5712 5710 5707 5705 5703 5701 5699 5697 5696 5695 5693 5692 5690 5689 5688 5686 5685 5683 5681
5791 5787 5783 5779 5776 5772 5768 5765 5762 5758 5755 5753 5749 5746 5743 5739 5735 5731 5728 5724 5721 5718 5714 5711 5709 5706 5704 5702 5699 5697 5695 5693 5692 5690 5688 5686 5685 5684 5682 5681 5679 5677 5675
5788 5784 5780 5776 5772 5769 5765 5762 5759 5756 5752 5750 5747 5743 5740 5736 5733 5729 5726 5722 5719 5715 5712 5709 5706 5704 5701 5699 5696 5695 5692 5690 5688 5686 5683 5681 5680 5678 5677 5675 5673 5671 5669
5784 5780 5777 5773 5769 5766 5763 5760 5756 5753 5750 5747 5744 5741 5738 5734 5731 5728 5724 5721 5717 5714 5710 5707 5704 5701 5699 5696 5694 5692 5689 5687 5685 5682 5680 5678 5676 5674 5672 5670 5668 5666 5663
5781 5777 5774 5770 5766 5763 5760 5757 5754 5750 5747 5744 5742 5739 5736 5732 5729 5726 5723 5720 5716 5713 5709 5706 5703 5700 5698 5695 5693 5690 5687 5684 5682 5679 5677 5675 5672 5670 5667 5665 5663 5660 5658
5778 5775 5771 5768 5764 5761 5758 5755 5751 5748 5745 5742 5740 5737 5734 5731 5728 5724 5722 5719 5715 5712 5708 5706 5703 5700 5697 5694 5691 5688 5685 5682 5679 5676 5674 5671 5669 5666 5664 5661 5659 5656 5653
5776 5773 5769 5766 5762 5759 5756 5753 5750 5747 5744 5741 5738 5736 5733 5729 5726 5723 5721 5718 5715 5712 5709 5706 5702 5699 5696 5693 5690 5687 5684 5680 5677 5674 5671 5668 5666 5663 5660 5658 5655 5652 5650
5774 5771 5767 5764 5760 5757 5754 5752 5749 5746 5743 5740 5738 5735 5732 5729 5726 5723 5720 5717 5714 5711 5708 5705 5702 5698 5695 5692 5689 5685 5682 5679 5676 5672 5669 5666 5663 5660 5657 5655 5652 5649 5646
5771 5768 5765 5762 5759 5756 5753 5750 5747 5744 5742 5739 5737 5734 5731 5728 5725 5723 5720 5717 5714 5711 5708 5704 5701 5698 5694 5691 5688 5684 5681 5677 5674 5671 5667 5664 5661 5658 5655 5652 5649 5646 5642
5769 5766 5763 5760 5757 5754 5751 5749 5746 5744 5741 5739 5736 5733 5731 5728 5726 5723 5720 5717 5714 5711 5708 5704 5700 5697 5693 5690 5686 5683 5680 5677 5673 5670 5667 5663 5660 5656 5653 5650 5647 5643 5639
5765 5763 5760 5758 5755 5752 5750 5748 5745 5742 5740 5738 5735 5733 5731 5728 5726 5723 5720 5717 5714 5711 5708 5704 5700 5696 5693 5689 5686 5683 5680 5676 5673 5670 5666 5663 5659 5656 5652 5649 5645 5641 5637
5761 5759 5757 5755 5752 5750 5747 5746 5743 5741 5739 5737 5735 5733 5730 5728 5725 5723 5720 5718 5715 5711 5708 5704 5700 5697 5693 5690 5686 5683 5680 5676 5673 5669 5666 5662 5659 5655 5651 5647 5643 5639 5634
5757 5755 5753 5751 5749 5747 5745 5743 5741 5739 5738 5736 5734 5732 5730 5727 5725 5722 5720 5717 5715 5711 5708 5705 5701 5698 5694 5690 5687 5683 5680 5676 5673 5669 5666 5662 5658 5654 5651 5646 5642 5637 5633
5753 5751 5749 5748 5746 5744 5743 5741 5739 5737 5736 5734 5732 5730 5728 5726 5724 5722 5720 5718 5715 5712 5709 5706 5702 5699 5695 5691 5687 5684 5680 5677 5673 5670 5666 5661 5657 5653 5649 5645 5641 5636 5631